Station 41043 - NE PUERTO RICO - 170 NM NNE of San Juan, PR Image indicating link to RSS feed of recent meteorological observations for station 41043


Conditions at 41043 as of
(9:10 pm ADT on 06/20/2024)
0010 GMT on 06/21/2024:
     

Click on the graph icon in the table below to see a time series plot of the last five days of that observation.

5-day plot - Wind Direction Wind Direction (WDIR):ENE ( 60 deg true )
5-day plot - Wind Speed Wind Speed (WSPD):8.0 m/s
5-day plot - Wind Gust Wind Gust (GST):10.0 m/s
5-day plot - Wave Height Wave Height (WVHT): 1.7 m
5-day plot - Average Wave Period Average Period (APD): 5.6 sec
5-day plot - Mean Wave Direction Mean Wave Direction (MWD): NE ( 45 deg true )
5-day plot - Atmospheric Pressure Atmospheric Pressure (PRES):1018.0 mb
5-day plot - Air Temperature Air Temperature (ATMP): 28.5 °C
5-day plot - Water Temperature Water Temperature (WTMP): 28.7 °C
5-day plot - Dew Point Dew Point (DEWP): 26.0 °C
5-day plot - Heat Index Heat Index (HEAT): 34.6 °C
5-day plot - Wind Speed at 10 Meters Wind Speed at 10 meters (WSPD10M): 9 m/s
5-day plot - Wind Speed at 20 Meters Wind Speed at 20 meters (WSPD20M): 9 m/s
5-day plot -  Wind Speed, Wind Gust and Atmospheric Pressure Combined plot of Wind Speed, Gust, and Air Pressure
Supplemental Measurements
Lowest 1-minute Pressure
Time (ADT)Pressure
9:10 pm1018.0 mb
Highest 1-minute Wind Speed
Time (ADT)5-day plot - 1-Minute Wind Speed WSPD 5-day plot - 1-Minute Wind Direction WDIR
9:08 pm 9 m/sENE ( 60 deg true )
Previous observations
TIME
(ADT)
5-day plot - Wind Direction
WDIR
 
5-day plot - Wind Speed
WSPD
m/s
5-day plot - Wind Gust
GST
m/s
5-day plot - Wave Height
WVHT
m
5-day plot - Dominant Wave Period
DPD
sec
5-day plot - Average Wave Period
APD
sec
5-day plot - Mean Wave Direction
MWD
 
5-day plot - Atmospheric Pressure
PRES
mb
5-day plot - Pressure Tendency
PTDY
mb
5-day plot - Air Temperature
ATMP
°C
5-day plot - Water Temperature
WTMP
°C
5-day plot - Dew Point
DEWP
°C
5-day plot - Salinity
SAL
psu
5-day plot - Visibility
VIS
km
5-day plot - Tide (above MLLW)
TIDE
m
2024-06-20 09:00 pmENE 8.0 10.0----1017.9 +0.6 28.5 28.7 26.0---
2024-06-20 08:50 pmENE 8.0 9.0 1.6 95.4 NE1017.9- 28.5 28.7 26.3---
2024-06-20 08:40 pmENE 7.0 8.0----1017.9- 28.5 28.7 26.5---
2024-06-20 08:30 pmENE 7.0 8.0----1017.8- 28.4 28.7 26.4---
2024-06-20 08:20 pmENE 7.0 8.0 1.6 85.5ENE1017.8- 28.4 28.7 26.1---
2024-06-20 08:10 pmENE 8.0 9.0----1017.6- 28.4 28.7 26.3---
2024-06-20 08:00 pmENE 8.0 9.0----1017.5 +0.0 28.4 28.7 26.1---
2024-06-20 07:50 pmENE 8.0 9.0 1.5 85.4 NE1017.3- 28.5 28.7 26.2---
2024-06-20 07:40 pmENE 7.0 9.0----1017.2- 28.5 28.7 26.2---
2024-06-20 07:30 pmENE 7.0 9.0----1017.3- 28.5 28.8 26.3---
2024-06-20 07:20 pmENE 7.0 9.0 1.8 85.8ENE1017.3- 28.6 28.8 26.2---
2024-06-20 07:10 pmENE 7.0 9.0 1.8-5.8ENE1017.2- 28.7 28.8 26.2---
2024-06-20 07:00 pmENE 7.0 8.0----1017.2 -0.3 28.5 28.8 26.4---
2024-06-20 06:50 pmENE 7.0 8.0 1.7 85.7 NE1017.1- 28.6 28.8 26.6---
2024-06-20 06:40 pmENE 7.0 8.0 1.7-5.7 NE1017.2- 28.7 28.8 26.1---
2024-06-20 06:30 pmENE 7.0 8.0----1017.2- 28.7 28.8 26.3---
2024-06-20 06:20 pmENE 7.0 9.0 1.5 85.4 NE1017.2- 28.7 28.8 26.0---
2024-06-20 06:10 pmENE 7.0 8.0 1.5-5.4 NE1017.2- 28.7 28.8 26.1---
2024-06-20 06:00 pmENE 7.0 8.0----1017.2 -0.8 28.8 28.8 26.4---
2024-06-20 05:50 pmENE 7.0 8.0 1.6 85.6 NE1017.2- 28.7 28.8 26.4---
2024-06-20 05:40 pmENE 7.0 8.0 1.6-5.6 NE1017.2- 28.7 28.8 26.3---
2024-06-20 05:30 pmENE 7.0 8.0----1017.2- 28.7 28.8 26.4---
2024-06-20 05:20 pmENE 7.0 9.0 1.6 85.5 NE1017.3- 28.7 28.8 26.2---
2024-06-20 05:10 pmENE 7.0 8.0 1.6-5.5 NE1017.3- 28.7 28.8 26.3---
2024-06-20 05:00 pmENE 7.0 8.0----1017.3 -1.1 28.7 28.8 26.2---
2024-06-20 04:50 pmENE 7.0 8.0 1.5 85.5 NE1017.4- 28.7- 26.4---
2024-06-20 04:40 pmENE 7.0 8.0 1.5-5.5 NE1017.4- 28.8 28.8 26.2---
2024-06-20 04:30 pmENE 7.0 8.0----1017.5- 28.7 28.8 26.4---
2024-06-20 04:20 pmENE 7.0 8.0 1.6 85.5 NE1017.6- 28.7 28.8 26.4---
2024-06-20 04:10 pmENE 7.0 8.0 1.6-5.5 NE1017.6- 28.8 28.8 26.3---
2024-06-20 04:00 pmENE 7.0 8.0----1017.6 -1.1 28.8 28.8 26.5---
2024-06-20 03:50 pmENE 7.0 8.0 1.6 85.6 NE1017.6- 28.8 28.8 26.3---
2024-06-20 03:40 pmENE 7.0 8.0----1017.6- 28.8 28.8 26.3---
2024-06-20 03:30 pmENE 7.0 8.0----1017.8- 28.7 28.8 26.4---
2024-06-20 03:20 pmENE 7.0 8.0 1.6 65.5 E1017.9- 28.7 28.8 26.3---
2024-06-20 03:10 pmENE 7.0 8.0 1.6-5.5 E1018.1- 28.8 28.8 26.2---
2024-06-20 03:00 pmENE 7.0 8.0----1018.1 -0.6 28.8 28.8 26.1---
2024-06-20 02:50 pmENE 7.0 8.0 1.5 95.5ENE1018.1- 28.8 28.8 26.1---
2024-06-20 02:40 pmENE 7.0 8.0----1018.2- 28.8 28.8 26.2---
2024-06-20 02:30 pmENE 6.0 8.0----1018.3- 28.7 28.8 26.2---
2024-06-20 02:20 pmENE 6.0 8.0 1.6 95.4ENE1018.3- 28.6 28.8 26.2---
2024-06-20 02:10 pmENE 6.0 7.0 1.6-5.4ENE1018.3- 28.6 28.7 25.9---
2024-06-20 02:00 pm E 6.0 7.0----1018.6 +0.0 28.6 28.7 25.8---
2024-06-20 01:50 pm E 6.0 8.0 1.6 85.5NNE1018.5- 28.8- 25.1---
2024-06-20 01:40 pm E 6.0 8.0 1.6-5.5NNE1018.5- 28.5 28.7 25.7---
2024-06-20 01:30 pm E 7.0 8.0----1018.5- 28.4 28.7 25.9---
2024-06-20 01:20 pm E 6.0 7.0 1.6 85.4 NE1018.6- 28.7 28.7 26.3---
2024-06-20 01:10 pm E 7.0 8.0 1.6-5.4 NE1018.6- 28.7 28.7 26.2---
2024-06-20 01:00 pm E 7.0 8.0----1018.6 +0.9 28.7 28.7 26.3---
2024-06-20 12:50 pm E 6.0 7.0 1.6 85.4 NE1018.6- 28.7- 26.6---
2024-06-20 12:40 pm E 6.0 7.0 1.6-5.4 NE1018.6- 28.6 28.7 26.4---
2024-06-20 12:30 pm E 6.0 7.0----1018.6- 28.6 28.7 26.3---
2024-06-20 12:20 pm E 6.0 8.0 1.5 85.2NNE1018.6- 28.8- 26.4---
2024-06-20 12:10 pm E 6.0 8.0 1.5-5.2NNE1018.6- 28.8 28.6 26.2---
2024-06-20 12:00 pm E 7.0 8.0----1018.6 +1.6 28.8 28.6 26.1---
2024-06-20 11:50 am E 7.0 8.0 1.5 85.3 NE1018.6- 28.8- 26.2---
2024-06-20 11:40 am E 7.0 8.0 1.5-5.3 NE1018.5- 28.7 28.6 26.3---
2024-06-20 11:30 am E 7.0 9.0----1018.5- 28.7 28.6 26.2---
2024-06-20 11:20 am E 7.0 8.0 1.5 95.3 NE1018.4- 28.7 28.6 26.0---
2024-06-20 11:10 am E 7.0 9.0 1.5-5.3 NE1018.5- 28.7 28.6 26.1---
2024-06-20 11:00 am E 7.0 8.0----1018.3 +1.7 28.7 28.6 26.4---
2024-06-20 10:50 am E 6.0 8.0 1.5 85.3 NE1018.3- 28.6 28.6 26.5---
2024-06-20 10:40 am E 6.0 8.0----1018.1- 28.7 28.6 26.3---
2024-06-20 10:30 am E 7.0 8.0----1018.1- 28.8 28.6 26.1---
2024-06-20 10:20 am E 7.0 8.0 1.7 85.5 NE1017.9- 28.7 28.5 25.9---
2024-06-20 10:10 am E 7.0 8.0 1.7-5.5 NE1017.8- 28.6 28.5 26.2---
2024-06-20 10:00 am E 6.0 8.0----1017.8 +1.7 28.4 28.5 26.1---
2024-06-20 09:50 am E 7.0 9.0 1.6 85.4ENE1017.7- 28.4- 26.3---
2024-06-20 09:40 am E 7.0 8.0 1.6-5.4ENE1017.7- 28.6 28.5 26.2---
2024-06-20 09:30 am E 6.0 8.0----1017.6- 28.5 28.5 26.4---
2024-06-20 09:20 am E 6.0 8.0 1.7 85.4NNE1017.5- 28.4 28.5 26.1---
2024-06-20 09:10 am E 7.0 11.0 1.7-5.4NNE1017.3- 27.8 28.5 25.7---
2024-06-20 09:00 am E 7.0 10.0----1017.2 +1.5 28.5 28.5 25.9---
2024-06-20 08:50 am E 7.0 8.0 1.6 85.3 E1017.1- 28.6- 26.0---
2024-06-20 08:40 am E 7.0 9.0----1017.1- 28.6 28.5 25.7---
2024-06-20 08:30 am E 7.0 9.0----1017.0- 28.5 28.5 26.1---
2024-06-20 08:20 am E 6.0 7.0 1.6 85.3 NE1017.0- 28.3 28.5 26.2---
2024-06-20 08:10 am E 7.0 9.0 1.6-5.3 NE1016.8- 28.2 28.5 26.1---
2024-06-20 08:00 am E 7.0 8.0----1016.7 +1.7 28.5 28.5 26.1---
2024-06-20 07:50 am E 7.0 9.0 1.5 85.3 NE1016.7- 28.5 28.5 26.1---
2024-06-20 07:40 am E 7.0 9.0 1.5-5.3 NE1016.5- 28.5 28.5 26.2---
2024-06-20 07:30 am E 7.0 8.0----1016.5- 28.4 28.5 26.1---
2024-06-20 07:20 am E 7.0 8.0 1.5 85.3ENE1016.4- 28.4 28.5 26.1---
2024-06-20 07:10 am E 7.0 8.0 1.5-5.3ENE1016.3- 28.4 28.5 25.9---
2024-06-20 07:00 am E 7.0 8.0----1016.1 +0.8 28.4 28.5 25.9---
2024-06-20 06:50 am E 7.0 8.0 1.5 85.5 E1016.0- 28.4- 26.0---
2024-06-20 06:40 am E 7.0 8.0 1.5-5.5 E1015.8- 28.4 28.5 25.8---
2024-06-20 06:30 am E 7.0 9.0----1015.7- 28.4 28.5 25.8---
2024-06-20 06:20 am E 7.0 9.0 1.4 85.1ENE1015.7- 28.4- 25.8---
2024-06-20 06:10 am E 7.0 9.0 1.4-5.1ENE1015.6- 28.4 28.5 25.8---
2024-06-20 06:00 am E 7.0 8.0----1015.6 +0.0 28.4 28.5 25.8---
2024-06-20 05:50 am E 7.0 9.0 1.4 55.2ESE1015.5- 28.4 28.5 25.8---
2024-06-20 05:40 am E 7.0 9.0 1.4-5.2ESE1015.5- 28.4 28.5 26.1---
2024-06-20 05:30 am E 7.0 8.0----1015.4- 28.3 28.5 26.2---
2024-06-20 05:20 am E 7.0 8.0 1.5 95.3 E1015.4- 28.3 28.5 26.1---
2024-06-20 05:10 am E 7.0 8.0 1.5-5.3 E1015.3- 28.3 28.5 26.0---
2024-06-20 05:00 am E 8.0 9.0----1015.1 -1.2 28.4 28.6 25.8---
2024-06-20 04:50 am E 7.0 9.0 1.5 85.2ENE1015.1- 28.3 28.6 25.9---
2024-06-20 04:40 am E 7.0 9.0----1015.2- 28.3 28.6 25.9---
2024-06-20 04:30 am E 7.0 9.0----1015.2- 28.4 28.6 25.8---
2024-06-20 04:20 am E 7.0 9.0 1.5 85.4 NE1015.3- 28.3 28.6 25.8---
2024-06-20 04:10 am E 8.0 9.0 1.5-5.4 NE1015.3- 28.4 28.6 25.9---
2024-06-20 04:00 am E 8.0 9.0----1015.3 -1.6 28.4 28.6 25.9---
2024-06-20 03:50 am E 7.0 9.0 1.4 85.0 NE1015.4- 28.4 28.6 26.1---
2024-06-20 03:40 am E 7.0 9.0----1015.5- 28.4 28.6 26.0---
2024-06-20 03:30 am E 8.0 9.0----1015.6- 28.4 28.6 26.1---
2024-06-20 03:20 am E 8.0 9.0 1.4 85.1ENE1015.6- 28.4 28.6 26.1---
2024-06-20 03:10 am E 8.0 9.0----1015.6- 28.4 28.6 26.0---
2024-06-20 03:00 am E 8.0 9.0----1015.6 -1.7 28.4 28.6 26.0---
2024-06-20 02:50 am E 8.0 9.0 1.5 85.3ENE1015.7- 28.4 28.6 26.3---
2024-06-20 02:40 am E 8.0 9.0----1015.8- 28.4 28.6 26.3---
2024-06-20 02:30 am E 8.0 10.0----1015.9- 28.4 28.6 26.1---
2024-06-20 02:20 am E 8.0 9.0 1.4 85.3 NE1015.9- 28.5 28.6 26.1---
2024-06-20 02:10 am E 7.0 9.0 1.4-5.3 NE1016.1- 28.5 28.6 26.3---
2024-06-20 02:00 am E 7.0 9.0----1016.3 -1.1 28.4 28.6 26.1---
2024-06-20 01:50 am E 8.0 9.0 1.5 85.3ENE1016.4- 28.5 28.6 26.1---
2024-06-20 01:40 am E 7.0 9.0 1.5-5.3ENE1016.7- 28.5 28.7 26.2---
2024-06-20 01:30 am E 7.0 9.0----1016.7- 28.4 28.7 26.5---
2024-06-20 01:20 am E 8.0 10.0 1.4 95.4 E1016.9- 28.4 28.7 26.2---
2024-06-20 01:10 am E 8.0 9.0 1.4-5.4 E1016.9- 28.6 28.7 26.5---
2024-06-20 01:00 am E 7.0 9.0----1016.9 +0.0 28.6 28.7 26.5---
2024-06-20 12:50 am E 8.0 9.0 1.4 85.4ENE1017.2- 28.6 28.7 26.5---
2024-06-20 12:40 am E 7.0 9.0----1017.2- 28.6 28.7 26.4---
2024-06-20 12:30 am E 7.0 9.0----1017.2- 28.6 28.7 26.4---
2024-06-20 12:20 am E 8.0 9.0 1.3 85.5ENE1017.3- 28.6 28.7 26.5---
2024-06-20 12:10 am E 8.0 9.0 1.3-5.5ENE1017.3- 28.6 28.7 26.4---
2024-06-20 12:00 am E 7.0 9.0----1017.3 +0.8 28.5 28.7 26.5---
2024-06-19 11:50 pmENE 6.0 7.0 1.4 85.7ENE1017.4- 28.4 28.7 26.6---
2024-06-19 11:40 pmENE 6.0 7.0 1.4-5.7ENE1017.5- 28.3 28.7 26.1---
2024-06-19 11:30 pm E 6.0 7.0----1017.6- 28.2 28.7 25.5---
2024-06-19 11:20 pm E 6.0 8.0 1.3 85.3ENE1017.5- 28.0- 25.5---
2024-06-19 11:10 pm E 7.0 8.0 1.3-5.3ENE1017.5- 28.1 28.7 25.6---
2024-06-19 11:00 pm E 7.0 9.0----1017.5 +1.4 28.1 28.7 26.2---
2024-06-19 10:50 pm E 7.0 8.0 1.2 85.3NNE1017.5- 28.5- 26.6---
2024-06-19 10:40 pmENE 6.0 7.0 1.2-5.3NNE1017.4- 28.4 28.7 26.4---
2024-06-19 10:30 pmENE 6.0 7.0----1017.4- 28.4 28.7 26.7---
2024-06-19 10:20 pm E 6.0 7.0 1.3 85.5ENE1017.4- 28.5 28.7 26.9---
2024-06-19 10:10 pm E 6.0 7.0 1.3-5.5ENE1017.3- 28.5 28.7 26.8---
2024-06-19 10:00 pm E 6.0 7.0----1017.2 +1.5 28.5 28.7 26.8---
2024-06-19 09:50 pmENE 6.0 7.0 1.3 85.5 E1017.0- 28.5 28.7 26.7---
2024-06-19 09:40 pm E 6.0 7.0----1016.9- 28.5 28.7 26.7---
2024-06-19 09:30 pm E 6.0 8.0----1016.8- 28.5 28.7 26.6---
2024-06-19 09:20 pm E 6.0 7.0 1.3 85.7ENE1016.7- 28.5 28.7 26.8---
2024-06-19 09:10 pm E 6.0 7.0 1.3-5.7ENE1016.8- 28.5 28.7 26.6---
2024-06-19 09:00 pm E 6.0 7.0----1016.5 +1.4 28.5 28.7 26.5---
2024-06-19 08:50 pm E 6.0 8.0 1.3 95.5 E1016.4- 28.5 28.7 26.6---

Detailed Wave Summary
for 41043 as of
(9:10 pm ADT on 06/20/2024)
0010 GMT on 06/21/2024:

These wave data are displayed in rounded times.

     

Click on the graph icon in the table below to see a time series plot of the last five days of that observation.

5-day plot - Significant Wave Height Significant Wave Height (WVHT): 1.7 m
5-day plot - Swell Height Swell Height (SwH): 1.2 m
5-day plot - Swell Period Swell Period (SwP): 8.3 sec
5-day plot - Swell Direction Swell Direction (SwD): NE
5-day plot - Wind Wave Height Wind Wave Height (WWH): 1.2 m
5-day plot - Wind Wave Period Wind Wave Period (WWP): 6.7 sec
5-day plot - Wind Wave Direction Wind Wave Direction (WWD): E
5-day plot - Wave Steepness Wave Steepness (STEEPNESS): AVERAGE
5-day plot - Average Wave Period Average Wave Period (APD): 5.6 sec
Previous observations
TIME
(ADT)
5-day plot - Wave Height
WVHT
m
5-day plot - Swell Height
SwH
m
5-day plot - Swell Period
SwP
sec
5-day plot - Swell Direction
SwD
 
5-day plot - Wind Wave Height
WWH
m
5-day plot - Wind Wave Period
WWP
sec
5-day plot - Wind Wave Direction
WWD
 
5-day plot - Wave Steepness
STEEPNESS
 
5-day plot - Average Wave Period
APD
sec
2024-06-20 08:40 pm 1.6 1.1 9.1 NE 1.2 6.7 ENE AVERAGE 5.4
2024-06-20 08:10 pm 1.6 1.2 8.3ENE 1.1 5.9 E AVERAGE 5.5
2024-06-20 07:40 pm 1.5 1.0 8.3 NE 1.2 6.2 ESE AVERAGE 5.4
2024-06-20 07:10 pm 1.8 1.3 7.7ENE 1.2 5.9 ESE STEEP 5.8
2024-06-20 06:40 pm 1.7 1.2 8.3 NE 1.2 6.7 ESE AVERAGE 5.7
2024-06-20 06:10 pm 1.5 1.0 7.7 NE 1.1 6.2 ESE AVERAGE 5.4
2024-06-20 05:40 pm 1.6 1.1 8.3 NE 1.1 5.6 ESE AVERAGE 5.6
2024-06-20 05:10 pm 1.6 1.1 8.3 NE 1.2 6.7 ESE AVERAGE 5.5
2024-06-20 04:40 pm 1.5 1.2 8.3 NE 1.0 4.8 ESE AVERAGE 5.5
2024-06-20 04:10 pm 1.6 1.1 8.3 NE 1.2 6.7 E AVERAGE 5.5
2024-06-20 03:40 pm 1.6 1.1 8.3 NE 1.1 5.0 E AVERAGE 5.6
2024-06-20 03:10 pm 1.6 1.1 8.3 NE 1.2 6.2 E STEEP 5.5
2024-06-20 02:40 pm 1.5 1.1 9.1ENE 1.0 5.6 ESE AVERAGE 5.5
2024-06-20 02:10 pm 1.6 1.3 9.1ENE 0.9 5.3 ESE AVERAGE 5.4
2024-06-20 01:40 pm 1.6 1.2 7.7NNE 1.0 4.3 ESE AVERAGE 5.5
2024-06-20 01:10 pm 1.6 1.1 8.3 NE 1.2 5.9 ESE AVERAGE 5.4
2024-06-20 12:40 pm 1.6 1.3 8.3 NE 0.9 4.3 ESE AVERAGE 5.4
2024-06-20 12:10 pm 1.5 1.1 8.3NNE 1.0 4.5 ESE AVERAGE 5.2
2024-06-20 11:40 am 1.5 1.1 8.3 NE 1.1 5.9 ESE AVERAGE 5.3
2024-06-20 11:10 am 1.5 0.9 9.1 NE 1.2 6.2 E AVERAGE 5.3
2024-06-20 10:40 am 1.5 1.1 7.7 NE 0.9 5.6 ESE AVERAGE 5.3
2024-06-20 10:10 am 1.7 1.2 8.3 NE 1.1 6.2 ESE AVERAGE 5.5
2024-06-20 09:40 am 1.6 1.1 7.7ENE 1.3 6.2 ESE AVERAGE 5.4
2024-06-20 09:10 am 1.7 1.0 8.3NNE 1.3 5.9 E AVERAGE 5.4
2024-06-20 08:40 am 1.6 0.9 7.7 E 1.3 6.7 E AVERAGE 5.3
2024-06-20 08:10 am 1.6 1.0 8.3 NE 1.2 5.0 ESE AVERAGE 5.3
2024-06-20 07:40 am 1.5 1.0 7.7 NE 1.1 5.9 E AVERAGE 5.3
2024-06-20 07:10 am 1.5 1.0 8.3ENE 1.1 6.2 E AVERAGE 5.3
2024-06-20 06:40 am 1.5 1.0 8.3 E 1.1 6.2 ESE AVERAGE 5.5
2024-06-20 06:10 am 1.4 0.8 7.7ENE 1.2 6.2 E AVERAGE 5.1
2024-06-20 05:40 am 1.4 0.8 8.3 E 1.2 5.3 ESEVERY_STEEP 5.2
2024-06-20 05:10 am 1.5 1.0 9.1 E 1.2 5.6 E AVERAGE 5.3
2024-06-20 04:40 am 1.5 0.9 8.3ENE 1.2 5.6 ESE AVERAGE 5.2
2024-06-20 04:10 am 1.5 0.9 8.3 NE 1.2 5.6 ESE AVERAGE 5.4
2024-06-20 03:40 am 1.4 0.8 7.7 NE 1.2 6.2 E AVERAGE 5.0
2024-06-20 03:10 am 1.4 0.8 8.3ENE 1.2 5.9 ENE AVERAGE 5.1
2024-06-20 02:40 am 1.5 0.9 8.3ENE 1.2 6.7 ENE AVERAGE 5.3
2024-06-20 02:10 am 1.4 0.9 8.3 NE 1.1 5.6 ESE AVERAGE 5.3
2024-06-20 01:40 am 1.5 0.9 8.3ENE 1.2 5.9 E AVERAGE 5.3
2024-06-20 01:10 am 1.4 1.0 9.1 E 1.0 5.9 E SWELL 5.4
2024-06-20 12:40 am 1.4 0.9 8.3ENE 1.1 6.7 ENE AVERAGE 5.4
2024-06-20 12:10 am 1.3 0.9 8.3ENE 1.0 5.9 E AVERAGE 5.5
2024-06-19 11:40 pm 1.4 1.2 8.3ENE 0.7 5.3 E AVERAGE 5.7
2024-06-19 11:10 pm 1.3 0.9 8.3ENE 0.9 5.6 E AVERAGE 5.3
2024-06-19 10:40 pm 1.2 1.0 8.3NNE 0.7 5.3 E AVERAGE 5.3
2024-06-19 10:10 pm 1.3 1.1 8.3ENE 0.8 5.6 E AVERAGE 5.5
2024-06-19 09:40 pm 1.3 1.0 8.3 E 0.8 5.3 ESE AVERAGE 5.5
2024-06-19 09:10 pm 1.3 1.1 8.3ENE 0.7 5.6 ESE AVERAGE 5.7

Plot of wave energy versus frequency (and period)